Tracking 27107 objects as of 21-Mar-2023
HD Live streaming from Space Station
objects crossing your sky now

STARLINK-4047

Track STARLINK-4047 now!
10-day predictions
STARLINK-4047 is classified as:


NORAD ID: 53243
Int'l Code: 2022-086B
Perigee: 546.1 km
Apogee: 547.6 km
Inclination: 53.2 °
Period: 95.4 minutes
Semi major axis: 6917 km
RCS: Unknown
Launch date: July 24, 2022
Source: United States (US)
Launch site: AIR FORCE EASTERN TEST RANGE (AFETR)
Your satellite tracking list
Your tracking list is empty




NASA's NSSDC Master Catalog

Two Line Element Set (TLE):
1 53243U 22086B   23079.16273275  .00001669  00000-0  12291-3 0  9999
2 53243  53.2191  37.2402 0001132  97.8583 262.2537 15.08845618 37389
Source of the keplerian elements: AFSPC